DateTimeUTC,F1_A11,F1_S11,BsB_S11,BsG_S11,BsR_S11,BbsB_S11,BbsG_S11,BbsR_S11,BaB_A11,BaG_A11,BaR_A11,Tu_S11,T_S11,Uu_S11,U_S11,P_S11,T1_A11
2021-08-06T09:00:00Z,00000200,20000000,,,,,,,0000.27,0000.04,-000.20,17.3,24.2,03.2,02.1,0667.2,30.9
2021-08-06T09:01:00Z,00000200,20000000,,,,,,,-000.10,0000.19,0000.11,17.3,24.2,03.2,02.1,0667.2,30.9
2021-08-06T09:02:00Z,00000200,20000000,,,,,,,-000.30,-000.17,-000.05,17.3,24.2,03.2,02.1,0667.2,30.9
2021-08-06T09:03:00Z,00000200,60000000,,,,,,,0000.90,0000.86,0000.90,17.3,24.2,03.2,02.1,0667.2,30.9
2021-08-06T09:04:00Z,00000200,40000000,0004.27,0003.23,0001.83,0000.97,0000.37,0000.23,0000.74,0000.59,0000.37,17.4,24.0,03.2,02.2,0668.0,30.9
2021-08-06T09:05:00Z,00000200,00000000,0004.68,0003.39,0001.50,0001.06,0000.37,0000.14,0001.47,0001.19,0000.84,17.5,24.0,03.3,02.2,0668.1,30.9
2021-08-06T09:06:00Z,00000200,00000000,0004.32,0003.00,0001.58,0000.01,0000.25,-000.13,0000.96,0001.00,0000.99,17.4,24.0,03.3,02.2,0668.1,30.9
2021-08-06T09:07:00Z,00000200,00000000,0004.83,0002.99,0001.50,0000.65,0000.15,0000.38,0001.20,0001.30,0000.72,17.4,24.0,03.5,02.3,0668.1,30.9
2021-08-06T09:08:00Z,00000200,00000000,0003.99,0002.72,0001.61,0000.88,0000.25,-000.09,0001.38,0000.78,0001.06,17.4,23.9,03.5,02.4,0668.1,30.9
2021-08-06T09:09:00Z,00000200,00000000,0004.06,0002.45,0001.61,0000.98,0000.27,0000.24,0000.77,0000.85,0000.39,17.5,23.9,03.5,02.3,0668.1,30.9
2021-08-06T09:10:00Z,00000200,00000000,0003.83,0003.05,0001.22,0000.75,0000.11,0000.24,0001.47,0001.09,0000.69,17.6,24.0,03.4,02.3,0668.1,30.9
2021-08-06T09:11:00Z,00000200,00000000,0003.72,0002.79,0001.64,0000.99,0000.28,0000.23,0000.30,0001.10,0000.57,17.7,24.0,03.4,02.3,0668.1,30.9
2021-08-06T09:12:00Z,00000200,00000000,0004.00,0002.58,0001.82,0001.10,0000.44,0000.36,0001.55,0000.90,0000.68,17.8,24.1,03.4,02.3,0668.1,30.9
2021-08-06T09:13:00Z,00000200,00000000,0003.98,0002.90,0001.63,0000.77,0000.38,0000.22,0000.98,0000.95,0001.05,17.8,24.1,03.4,02.3,0668.1,30.9
2021-08-06T09:14:00Z,00000200,00000000,0003.78,0003.03,0001.80,0000.97,0000.10,0000.23,0000.93,0000.99,0000.61,17.8,24.1,03.5,02.4,0668.1,30.9
2021-08-06T09:15:00Z,00000200,00000000,0003.63,0003.25,0001.50,0000.90,0000.47,0000.21,0000.58,0000.28,0000.27,17.8,24.1,03.4,02.3,0668.1,30.9
2021-08-06T09:16:00Z,00000200,00000000,0003.65,0003.41,0001.90,0001.09,0000.37,0000.19,0001.00,0000.89,0000.95,17.8,24.0,03.4,02.3,0668.1,30.9
2021-08-06T09:17:00Z,00000200,00000000,0004.18,0003.01,0001.96,0000.44,0000.21,0000.14,0001.13,0000.98,0000.81,17.7,24.0,03.5,02.4,0668.1,30.9
2021-08-06T09:18:00Z,00000200,00000000,0003.31,0002.43,0001.71,0000.85,0000.40,0000.48,0001.01,0000.93,0000.78,17.7,24.0,03.5,02.4,0668.1,30.9
2021-08-06T09:19:00Z,00000200,00000000,0003.59,0002.50,0001.61,0000.56,0000.34,0000.18,-002.47,-002.53,-002.63,17.7,24.0,03.3,02.2,0668.1,30.9
2021-08-06T09:20:00Z,00000200,00000000,0004.59,0003.08,0001.47,0000.21,0000.21,-000.14,0001.78,0001.83,0001.35,17.7,24.0,02.2,01.5,0668.1,30.9
2021-08-06T09:21:00Z,00000200,00000000,0003.31,0002.72,0001.68,0001.11,0000.34,0000.35,0002.10,0002.31,0002.19,17.7,24.0,02.7,01.8,0668.1,30.9
2021-08-06T09:22:00Z,00000200,00000000,0003.62,0002.36,0001.08,0000.52,0000.36,0000.26,0001.96,0001.40,0001.15,17.7,24.0,03.2,02.2,0668.1,30.9
2021-08-06T09:23:00Z,00000200,00000000,0002.67,0002.39,0001.17,0000.34,0000.17,-000.13,-000.81,-000.68,-000.53,17.6,24.0,03.5,02.4,0668.1,30.9
2021-08-06T09:24:00Z,00000200,00000000,0003.81,0002.79,0001.38,0000.85,0000.36,0000.09,0001.91,0001.90,0001.42,17.6,24.0,03.2,02.2,0668.1,30.9
2021-08-06T09:25:00Z,00000200,00000000,0003.45,0003.03,0002.34,0000.79,0000.29,0000.38,0001.61,0001.15,0001.24,17.6,24.0,03.3,02.3,0668.1,30.9
2021-08-06T09:26:00Z,00000200,00000000,0004.11,0002.67,0001.72,0000.93,0000.22,0000.06,0000.48,0000.96,0000.10,17.6,24.0,03.5,02.4,0668.1,30.9
2021-08-06T09:27:00Z,00000200,00000000,0004.50,0003.45,0002.10,0000.87,0000.59,0000.28,0001.19,0001.05,0000.77,17.6,24.0,03.4,02.3,0668.0,30.9
2021-08-06T09:28:00Z,00000200,00000000,0003.84,0003.33,0001.90,0000.28,0000.65,-000.07,0001.16,0000.56,0001.10,17.6,24.0,03.4,02.3,0668.0,30.9
2021-08-06T09:29:00Z,00000200,00000000,0004.03,0003.42,0001.90,0000.68,0000.32,0000.17,0001.15,0001.07,0000.49,17.6,23.9,03.4,02.3,0668.0,30.9
2021-08-06T09:30:00Z,00000200,00000000,0005.75,0003.13,0002.28,0000.75,0000.34,0000.12,0000.91,0001.20,0001.13,17.6,23.9,03.3,02.2,0668.0,30.9
2021-08-06T09:31:00Z,00000200,00000000,0004.87,0003.28,0001.98,0000.26,0000.38,0000.01,0001.41,0001.05,0000.27,17.6,23.9,03.3,02.3,0668.0,30.9
2021-08-06T09:32:00Z,00000200,00000000,0004.56,0003.57,0001.88,0000.55,0000.52,-000.10,0000.63,0000.90,0000.89,17.6,23.9,03.4,02.3,0668.0,30.9
2021-08-06T09:33:00Z,00000200,00000000,0004.87,0003.51,0001.92,0000.86,0000.57,0000.19,0001.30,0000.92,0000.69,17.5,23.9,03.4,02.3,0668.0,30.9
2021-08-06T09:34:00Z,00000200,00000000,0003.97,0003.42,0001.86,0000.47,0000.49,0000.15,0001.28,0001.49,0001.05,17.5,23.9,03.4,02.3,0668.0,30.9
2021-08-06T09:35:00Z,00000200,00000000,0005.25,0003.57,0002.15,0000.54,0000.38,0000.06,0001.08,0000.35,0000.88,17.5,23.9,03.4,02.3,0668.0,30.9
2021-08-06T09:36:00Z,00000200,00000000,0004.33,0003.45,0001.84,0000.80,0000.42,0000.25,0001.14,0001.42,0000.81,17.5,23.9,03.4,02.3,0668.0,30.9
2021-08-06T09:37:00Z,00000200,00000000,0004.31,0003.45,0001.70,0000.49,0000.11,0000.07,0001.20,0000.86,0000.53,17.5,23.9,03.4,02.3,0668.0,30.9
2021-08-06T09:38:00Z,00000200,00000000,0003.31,0003.08,0001.82,0000.81,0000.47,0000.35,0001.37,0001.38,0001.28,17.5,23.9,03.5,02.3,0668.0,30.9
2021-08-06T09:39:00Z,00000200,00000000,0004.22,0003.08,0001.75,0000.61,0000.34,0000.04,0001.11,0001.14,0000.77,17.6,23.9,03.4,02.3,0668.0,30.9
2021-08-06T09:40:00Z,00000200,00000000,0004.65,0003.52,0001.78,0000.97,0000.47,0000.14,0000.99,0000.85,0000.77,17.6,23.9,03.3,02.3,0668.0,30.9
2021-08-06T09:41:00Z,00000200,00000000,0004.67,0003.00,0002.00,0000.75,0000.35,0000.38,0001.09,0000.86,0000.52,17.6,23.9,03.4,02.3,0668.0,30.9
2021-08-06T09:42:00Z,00000200,00000000,0003.73,0002.85,0001.78,0000.34,0000.52,0000.31,-001.17,-001.11,-001.52,17.6,23.9,03.2,02.2,0668.0,30.9
2021-08-06T09:43:00Z,00000200,00000000,0004.53,0003.08,0001.56,0000.62,0000.17,0000.12,0002.65,0002.41,0002.40,17.6,23.9,03.0,02.0,0668.0,30.9
2021-08-06T09:44:00Z,00000200,00000000,0005.00,0003.57,0001.62,0000.92,0000.29,0000.55,0001.22,0001.32,0001.43,17.6,23.9,03.4,02.3,0668.0,30.9
2021-08-06T09:45:00Z,00000200,00000000,0004.14,0003.57,0001.62,0000.12,0000.26,0000.28,0001.00,0001.10,0000.44,17.6,23.9,03.4,02.3,0668.0,30.9
2021-08-06T09:46:00Z,00000200,00000000,0003.77,0002.97,0001.81,0000.40,0000.72,0000.20,0001.16,0000.67,0000.48,17.6,23.9,03.4,02.3,0668.0,30.9
2021-08-06T09:47:00Z,00000200,00000000,0004.38,0003.51,0001.83,0000.87,0000.55,0000.28,0000.89,0000.91,0000.66,17.6,23.9,03.3,02.2,0668.0,30.9
2021-08-06T09:48:00Z,00000200,00000000,0004.40,0003.42,0001.79,0001.35,0000.23,-000.10,0000.78,0000.32,0000.59,17.6,23.9,03.2,02.2,0668.0,30.9
2021-08-06T09:49:00Z,00000200,00000000,0004.07,0003.08,0001.60,0000.66,0000.84,0000.20,0000.20,0000.43,-000.19,17.6,23.9,03.0,02.0,0668.1,30.9
2021-08-06T09:50:00Z,00000200,00000000,0004.02,0002.98,0001.86,0000.48,0000.30,0000.45,-000.97,-001.21,-001.05,17.6,23.9,02.8,01.9,0668.1,30.9
2021-08-06T09:51:00Z,00000200,01000000,0002.95,0002.89,0001.74,0000.20,0000.67,0000.36,-000.15,-000.48,-000.91,17.6,23.9,01.8,01.2,0668.2,30.9
2021-08-06T09:52:00Z,00000200,01000000,0004.56,0002.97,0001.58,-000.17,0000.40,0000.17,0001.84,0001.89,0002.03,17.5,23.9,01.7,01.2,0668.2,30.9
2021-08-06T09:53:00Z,00000200,00000000,0004.01,0002.64,0001.72,0000.73,0000.18,0000.13,0001.25,0001.52,0000.91,17.5,23.8,02.0,01.4,0668.2,30.9
2021-08-06T09:54:00Z,00000200,01000000,0003.65,0002.60,0001.76,0000.31,0000.44,0000.01,0000.59,0000.58,0000.41,17.5,23.8,02.3,01.5,0668.2,30.9
2021-08-06T09:55:00Z,00000200,00000000,0004.28,0002.67,0001.56,0000.99,0000.34,0000.11,0001.32,0001.50,0000.71,17.5,23.8,02.2,01.5,0668.2,30.9
2021-08-06T09:56:00Z,00000200,00000000,0002.61,0002.13,0001.58,0000.43,0000.35,0000.24,0002.07,0001.73,0001.86,17.5,23.8,02.5,01.7,0668.2,30.9
2021-08-06T09:57:00Z,00000200,40000000,,,,,,,0000.25,0000.32,0000.70,17.5,23.9,02.8,01.9,0668.2,30.9
2021-08-06T09:58:00Z,00000200,60000000,,,,,,,-000.37,-000.12,-000.29,17.2,24.0,02.9,01.9,0667.2,30.9
2021-08-06T09:59:00Z,00000200,20000000,,,,,,,0000.37,0000.18,0000.00,17.2,24.1,02.8,01.8,0667.1,30.9
